Temp
1 1 1 2 2 2 3 3 2 4 4 4 4 4 4 4 3 3 3 3 2 2 2 1 1 1 0 -0 -1 -0 -0 0 0 0 0 0 0 0 0 0 0 0 0 0
1 2 2 2 2 2 2 3 2 2 3 3 3 3 3 3 3 3 2 2 1 0 0 -0 -0 -1 -1 -1 -1 -1 -0 -0 0 -0 -0 -0 -0 -0 -0 -0 -0 -0 -0 -0
0 -0 -0 1 4 4 3 3 3 3 4 2 3 2 2 1 1 1 0 -0 -0 -1 -1 -1 -2 -2 -2 -2 -2 -1 -1 -1 -1 -1 -1 -2 -1 -1 -1 -1 -1 -1 -1 -1
-1 -1 -2 2 2 3 3 3 3 2 2 2 1 1 2 2 1 0 -0 -1 -1 -2 -2 -2 -3 -3 -3 -2 -2 -2 -2 -2 -2 -2 -2 -2 -2 -2 -2 -2 -2 -2 -2 -1
-1 -2 1 3 3 2 2 3 3 3 2 2 2 1 1 0 0 -1 -1 -2 -2 -3 -3 -3 -3 -3 -3 -2 -2 -3 -3 -3 -3 -3 -3 -3 -3 -3 -3 -3 -3 -3 -3 -2
-3 -3 -3 2 2 2 2 2 2 3 2 2 2 1 1 0 -0 -1 -1 -2 -3 -3 -3 -3 -3 -3 -3 -3 -3 -3 -4 -4 -4 -4 -4 -4 -4 -4 -4 -4 -4 -3 -3 -4
-3 -3 -1 1 1 1 -0 1 1 1 1 1 1 0 0 -0 -1 -1 -2 -3 -3 -3 -3 -3 -3 -3 -4 -4 -4 -4 -5 -5 -5 -5 -5 -5 -5 -5 -5 -5 -4 -4 -4 -4
-4 -4 -3 1 -0 -0 0 0 -0 -0 -0 -0 -0 -0 -1 -1 -1 -2 -3 -3 -4 -4 -4 -4 -4 -4 -4 -5 -5 -5 -5 -6 -6 -6 -6 -6 -6 -6 -6 -5 -5 -5 -5 -5
-1 1 0 -0 0 -0 -0 -1 -1 -1 -1 -1 -1 -2 -2 -2 -2 -3 -3 -4 -4 -4 -4 -4 -5 -5 -5 -5 -6 -6 -6 -7 -7 -7 -7 -7 -7 -7 -6 -6 -6 -6 -6 -6
-1 -0 -0 -1 -1 -1 -2 -2 -1 -2 -2 -2 -3 -3 -3 -3 -3 -4 -4 -4 -5 -5 -5 -5 -6 -6 -6 -6 -7 -7 -7 -7 -7 -7 -8 -8 -7 -7 -7 -7 -7 -7 -7 -7
-2 -1 -2 -2 -2 -2 -2 -2 -3 -3 -3 -3 -4 -4 -4 -4 -5 -5 -5 -5 -6 -6 -6 -7 -7 -7 -7 -8 -8 -8 -8 -8 -8 -8 -8 -8 -8 -8 -8 -8 -8 -8 -8 -8
-1 -2 -2 -2 -2 -2 -3 -3 -4 -4 -4 -4 -4 -5 -5 -5 -5 -6 -6 -6 -7 -7 -7 -8 -8 -8 -9 -9 -9 -9 -9 -9 -9 -8 -9 -9 -8 -8 -9 -9 -9 -10 -10 -10
-2 -2 -3 -3 -3 -3 -4 -4 -4 -4 -5 -5 -5 -5 -6 -6 -6 -6 -7 -7 -7 -8 -8 -8 -9 -9 -9 -10 -9 -9 -9 -9 -9 -9 -9 -9 -9 -10 -9 -10 -10 -11 -11 -11
-4 -4 -4 -4 -5 -5 -5 -5 -5 -5 -5 -6 -6 -6 -7 -7 -7 -8 -8 -8 -9 -9 -9 -9 -10 -10 -10 -10 -9 -9 -10 -10 -10 -10 -10 -11 -11 -11 -12 -12 -11 -11 -12 -12
-6 -6 -6 -6 -6 -6 -6 -5 -6 -6 -6 -7 -7 -7 -8 -8 -8 -8 -9 -9 -9 -10 -10 -10 -10 -10 -10 -10 -10 -10 -10 -10 -11 -11 -11 -12 -12 -13 -13 -13 -13 -13 -13 -13
-6 -6 -7 -7 -6 -6 -6 -6 -6 -7 -7 -8 -8 -9 -9 -9 -9 -9 -10 -10 -10 -10 -10 -10 -10 -10 -10 -10 -10 -11 -11 -11 -11 -11 -12 -13 -13 -13 -14 -14 -14 -14 -14 -14
-7 -7 -8 -8 -8 -8 -7 -8 -8 -8 -9 -9 -9 -9 -9 -10 -10 -11 -11 -11 -10 -10 -10 -11 -11 -11 -11 -11 -11 -11 -11 -12 -12 -12 -13 -13 -14 -14 -14 -15 -15 -15 -15 -14
-6 -6 -7 -7 -8 -9 -9 -9 -9 -9 -10 -10 -10 -10 -11 -11 -11 -11 -11 -11 -11 -11 -11 -11 -11 -11 -11 -11 -12 -12 -12 -12 -13 -13 -14 -14 -15 -15 -15 -15 -15 -15 -15 -15
-7 -7 -8 -8 -9 -10 -10 -10 -10 -11 -11 -11 -11 -12 -11 -11 -11 -11 -11 -11 -11 -11 -11 -11 -11 -12 -12 -12 -12 -12 -13 -13 -13 -14 -15 -15 -15 -15 -15 -15 -15 -15 -15 -15
-9 -9 -9 -9 -10 -11 -11 -11 -11 -12 -12 -12 -12 -12 -11 -11 -11 -11 -11 -11 -11 -11 -11 -11 -12 -12 -13 -13 -13 -13 -14 -14 -15 -15 -15 -15 -15 -15 -15 -15 -15 -15 -15 -15
-10 -10 -10 -11 -11 -11 -12 -12 -13 -12 -12 -12 -12 -12 -12 -11 -11 -11 -11 -11 -11 -12 -12 -12 -12 -13 -13 -13 -14 -14 -15 -15 -16 -16 -16 -16 -16 -15 -15 -15 -15 -15 -15 -15
-11 -11 -12 -12 -12 -12 -13 -13 -12 -12 -12 -12 -12 -12 -12 -11 -11 -11 -11 -11 -11 -12 -12 -12 -13 -14 -14 -14 -15 -15 -15 -16 -16 -16 -16 -16 -16 -16 -15 -16 -16 -16 -16 -15
-11 -12 -12 -12 -12 -13 -13 -12 -12 -12 -12 -12 -12 -12 -12 -12 -12 -12 -11 -12 -12 -13 -13 -13 -14 -14 -15 -15 -15 -15 -15 -16 -16 -16 -16 -16 -16 -16 -16 -16 -16 -16 -16 -16
-12 -12 -12 -12 -12 -12 -12 -13 -13 -12 -12 -12 -12 -12 -12 -12 -12 -12 -13 -13 -14 -14 -14 -14 -15 -15 -16 -15 -15 -16 -16 -16 -16 -16 -16 -16 -16 -16 -16 -17 -17 -17 -17 -16
-13 -13 -13 -13 -13 -13 -13 -13 -13 -12 -12 -12 -12 -12 -13 -13 -14 -13 -14 -14 -14 -15 -15 -15 -15 -16 -16 -16 -16 -16 -16 -16 -16 -16 -16 -16 -16 -16 -16 -17 -17 -17 -17 -17
-13 -13 -13 -13 -13 -13 -13 -13 -13 -12 -13 -12 -12 -13 -13 -14 -14 -15 -15 -15 -15 -15 -15 -15 -15 -15 -16 -16 -16 -16 -16 -16 -17 -17 -17 -17 -17 -17 -17 -17 -17 -17 -17 -17
-13 -13 -13 -13 -13 -14 -14 -14 -14 -13 -14 -14 -14 -14 -15 -15 -15 -15 -15 -15 -15 -15 -15 -15 -16 -16 -16 -16 -16 -17 -17 -17 -17 -17 -17 -17 -17 -17 -17 -17 -17 -17 -17 -17
Height
3095 3095 3095 3094 3094 3094 3093 3094 3093 3092 3091 3094 3094 3094 3096 3097 3098 3099 3100 3099 3100 3101 3101 3100 3100 3099 3098 3097 3096 3095 3093 3091 3088 3086 3083 3080 3077 3075 3072 3069 3066 3064 3062 3060
3091 3091 3090 3088 3089 3088 3087 3087 3085 3087 3085 3088 3089 3090 3090 3091 3092 3093 3093 3093 3094 3095 3094 3093 3092 3091 3090 3090 3089 3088 3085 3083 3081 3078 3076 3074 3071 3069 3066 3063 3060 3058 3055 3053
3089 3088 3086 3082 3079 3079 3079 3080 3081 3079 3080 3081 3083 3082 3084 3085 3085 3086 3086 3086 3087 3087 3087 3087 3087 3086 3086 3085 3083 3081 3079 3077 3075 3073 3070 3068 3066 3063 3060 3057 3054 3051 3048 3046
3085 3085 3084 3074 3072 3073 3073 3073 3072 3072 3073 3074 3074 3076 3076 3077 3078 3079 3080 3080 3081 3082 3081 3081 3081 3081 3080 3079 3077 3075 3073 3071 3069 3067 3064 3062 3059 3056 3054 3051 3048 3045 3041 3038
3082 3080 3073 3069 3069 3069 3068 3067 3066 3066 3068 3068 3068 3070 3070 3070 3072 3073 3073 3074 3074 3075 3075 3075 3074 3074 3073 3072 3071 3069 3067 3065 3063 3061 3058 3056 3053 3051 3048 3045 3042 3038 3035 3033
3077 3076 3071 3064 3063 3063 3064 3063 3062 3062 3062 3063 3063 3063 3064 3066 3067 3067 3067 3067 3068 3069 3070 3070 3070 3069 3067 3066 3064 3063 3061 3059 3057 3054 3051 3049 3045 3043 3040 3036 3034 3031 3029 3024
3071 3070 3063 3060 3060 3060 3061 3061 3057 3058 3059 3059 3059 3061 3060 3059 3060 3061 3061 3062 3063 3064 3064 3064 3063 3062 3060 3058 3057 3055 3053 3051 3049 3046 3044 3041 3039 3034 3031 3029 3026 3023 3020 3017
3065 3066 3059 3054 3055 3057 3055 3052 3054 3054 3054 3055 3055 3056 3055 3055 3055 3056 3057 3057 3057 3057 3057 3056 3055 3054 3053 3051 3050 3048 3046 3044 3042 3039 3036 3033 3030 3027 3024 3019 3017 3014 3011 3009
3056 3052 3051 3050 3051 3051 3050 3050 3050 3049 3049 3049 3049 3049 3050 3050 3050 3050 3050 3050 3050 3050 3049 3048 3048 3047 3045 3044 3042 3041 3039 3036 3034 3031 3028 3024 3021 3018 3015 3011 3007 3005 3002 3000
3047 3047 3046 3046 3046 3046 3044 3044 3043 3044 3042 3042 3043 3043 3043 3043 3044 3044 3044 3044 3043 3042 3041 3040 3040 3039 3037 3036 3033 3032 3030 3028 3025 3022 3019 3016 3012 3007 3005 3001 2998 2995 2993 2990
3038 3040 3039 3040 3039 3039 3038 3037 3037 3037 3036 3036 3036 3036 3036 3036 3037 3037 3036 3036 3035 3034 3034 3033 3032 3030 3028 3026 3024 3023 3021 3019 3016 3012 3009 3005 3002 2998 2995 2993 2988 2985 2983 2979
3030 3034 3032 3031 3030 3029 3029 3029 3029 3029 3029 3028 3028 3029 3029 3029 3028 3029 3028 3027 3026 3026 3025 3024 3022 3022 3019 3016 3014 3013 3012 3010 3006 3003 3000 2996 2992 2990 2987 2982 2980 2978 2973 2967
3023 3024 3023 3022 3022 3020 3020 3020 3020 3020 3020 3019 3020 3020 3020 3020 3020 3019 3019 3018 3017 3016 3015 3014 3014 3013 3010 3007 3006 3005 3002 2999 2996 2992 2988 2984 2981 2977 2973 2974 2970 2967 2964 2960
3014 3014 3012 3013 3012 3012 3011 3010 3010 3010 3011 3011 3011 3012 3012 3011 3011 3011 3010 3009 3008 3008 3008 3007 3006 3005 3002 3000 2997 2995 2992 2988 2984 2981 2977 2973 2970 2966 2962 2959 2956 2955 2955 2951
3002 3001 3000 3001 3001 3001 3001 3000 3000 3000 3001 3002 3003 3003 3003 3004 3004 3002 3001 3000 3001 3001 3001 2999 2997 2996 2993 2991 2988 2985 2981 2978 2974 2971 2967 2963 2959 2956 2953 2949 2946 2943 2940 2940
2989 2989 2990 2991 2992 2993 2993 2993 2992 2992 2992 2994 2995 2995 2994 2994 2995 2995 2994 2993 2994 2994 2993 2991 2990 2987 2985 2982 2979 2976 2972 2969 2964 2961 2957 2953 2950 2946 2943 2940 2936 2933 2929 2927
2979 2980 2981 2981 2983 2983 2984 2985 2985 2984 2985 2986 2986 2987 2988 2987 2988 2988 2988 2987 2987 2987 2986 2984 2982 2979 2976 2973 2970 2966 2963 2960 2955 2951 2947 2943 2940 2937 2933 2930 2926 2922 2919 2916
2971 2970 2971 2972 2972 2973 2975 2976 2978 2978 2979 2980 2980 2980 2980 2981 2982 2983 2983 2982 2981 2981 2979 2976 2972 2970 2967 2964 2960 2957 2953 2949 2944 2940 2937 2933 2930 2926 2923 2919 2916 2911 2908 2905
2962 2962 2963 2963 2965 2964 2966 2968 2969 2971 2971 2972 2975 2977 2977 2976 2976 2976 2975 2975 2974 2972 2972 2967 2964 2960 2956 2953 2949 2945 2940 2936 2933 2929 2926 2922 2919 2916 2911 2907 2902 2898 2894 2890
2955 2955 2958 2956 2958 2959 2960 2962 2963 2964 2965 2966 2968 2970 2971 2971 2970 2969 2968 2967 2965 2962 2959 2956 2951 2947 2944 2940 2937 2931 2928 2924 2920 2917 2914 2910 2907 2903 2899 2895 2891 2886 2882 2879
2950 2951 2952 2953 2955 2956 2957 2958 2959 2961 2961 2961 2961 2962 2962 2963 2962 2959 2958 2956 2957 2950 2946 2943 2938 2935 2931 2928 2924 2919 2915 2912 2908 2905 2902 2898 2894 2890 2887 2883 2879 2875 2871 2867
2947 2948 2949 2950 2951 2953 2954 2955 2955 2956 2955 2955 2955 2954 2952 2953 2951 2949 2947 2944 2942 2937 2933 2930 2926 2923 2918 2914 2910 2907 2903 2899 2896 2893 2889 2885 2881 2878 2874 2871 2867 2863 2860 2856
2944 2946 2947 2949 2949 2949 2949 2949 2950 2949 2948 2947 2946 2945 2943 2941 2939 2935 2934 2934 2928 2924 2920 2917 2913 2909 2904 2900 2897 2894 2890 2887 2884 2880 2877 2873 2869 2865 2861 2858 2854 2851 2848 2845
2944 2944 2945 2945 2945 2944 2943 2944 2942 2940 2939 2937 2936 2934 2931 2928 2926 2924 2921 2917 2914 2910 2906 2902 2899 2896 2891 2887 2883 2881 2878 2875 2872 2869 2866 2862 2858 2854 2851 2847 2844 2840 2838 2835
2940 2940 2939 2938 2937 2936 2934 2933 2931 2930 2927 2926 2924 2922 2919 2916 2912 2911 2907 2904 2900 2896 2893 2891 2887 2883 2878 2875 2871 2868 2865 2863 2860 2857 2855 2852 2848 2845 2841 2838 2834 2831 2828 2825
2933 2932 2931 2930 2928 2926 2924 2921 2918 2917 2915 2912 2911 2909 2906 2904 2900 2896 2892 2889 2886 2884 2881 2878 2874 2871 2867 2863 2860 2858 2855 2853 2850 2848 2845 2842 2839 2836 2832 2828 2824 2821 2818 2816
2924 2922 2921 2919 2917 2914 2911 2908 2906 2904 2902 2899 2895 2895 2892 2889 2886 2883 2880 2877 2874 2872 2869 2866 2863 2859 2855 2852 2850 2848 2845 2843 2841 2839 2837 2833 2830 2826 2821 2817 2813 2810 2808 2807
Wind_Speed
12 13 12 12 11 15 25 28 19 24 24 21 22 20 18 18 20 21 22 23 23 23 25 25 26 26 24 22 21 21 23 24 24 25 25 25 25 25 25 25 25 25 25 26
13 14 17 21 22 24 26 25 29 30 33 28 25 25 25 22 23 24 23 26 26 25 25 25 27 25 23 22 22 21 22 22 23 23 24 24 24 24 24 25 25 25 26 26
5 7 12 19 22 25 30 32 31 34 31 28 27 27 28 26 25 23 25 26 25 25 25 26 22 21 20 20 21 21 22 22 23 23 24 24 24 23 23 23 23 24 25 25
6 6 3 9 10 12 15 17 19 24 27 28 24 23 24 26 23 22 21 22 24 26 24 23 20 19 19 21 21 22 23 24 24 24 23 23 23 23 24 25 26 26 25 25
6 9 17 18 17 16 16 18 18 17 15 19 20 19 21 22 21 19 19 21 22 21 19 17 18 19 21 22 23 24 24 24 24 24 24 25 27 28 29 29 30 30 30 30
12 6 6 6 8 6 7 15 12 11 13 15 17 19 17 18 19 19 18 16 15 15 15 17 19 21 24 25 25 25 25 25 25 25 27 28 28 29 30 31 30 31 31 32
24 12 12 19 19 16 10 9 11 8 8 7 9 10 13 14 14 13 12 12 13 15 18 20 23 25 25 25 24 24 25 26 27 29 30 31 32 33 34 34 34 33 31 31
19 11 14 16 15 15 11 9 8 9 13 14 13 13 13 14 15 14 13 14 16 19 22 25 26 25 24 24 25 26 27 29 30 30 31 33 34 34 35 36 34 32 31 29
16 9 9 7 10 13 13 16 21 23 19 17 16 16 17 17 18 18 18 20 22 25 26 26 24 24 24 26 27 29 30 31 31 32 34 34 34 34 33 33 33 32 32 32
24 25 25 25 24 22 23 24 22 21 23 22 22 20 20 20 21 23 24 26 27 27 26 26 25 26 28 29 30 30 31 32 35 35 33 34 35 35 35 33 33 33 32 33
31 28 27 25 24 26 28 28 28 25 24 24 23 23 24 25 27 28 28 29 28 26 25 25 26 27 28 29 30 31 32 31 32 34 35 35 35 35 34 33 34 35 34 35
36 30 29 30 30 29 25 24 26 25 25 26 27 28 28 29 30 30 31 30 28 26 26 26 26 25 27 30 31 30 30 32 33 35 35 36 37 36 34 35 33 32 33 35
33 29 28 32 31 28 28 28 27 28 28 26 26 28 29 29 31 31 29 28 28 28 27 26 26 26 26 29 31 32 35 36 37 38 38 38 37 38 39 34 34 33 32 32
33 37 37 36 37 37 34 33 32 31 30 28 26 27 29 30 29 29 29 29 26 23 22 23 23 24 28 31 33 33 33 34 36 37 37 38 38 37 38 39 40 37 31 32
38 36 34 29 31 33 31 31 31 29 28 27 28 28 28 28 27 27 25 22 21 19 17 20 24 24 26 28 29 31 32 34 35 36 36 37 37 36 36 36 37 37 37 33
24 24 24 25 26 28 29 28 27 27 24 23 23 24 25 26 25 21 18 17 16 17 18 20 23 26 28 30 31 33 34 36 38 39 38 37 35 35 34 35 36 36 37 36
27 27 27 29 26 24 25 26 25 23 23 23 23 25 24 20 16 13 15 16 16 16 18 23 27 29 31 33 35 36 38 39 40 40 38 37 36 35 35 35 36 36 36 35
24 25 25 25 24 23 21 20 21 21 21 22 21 19 17 14 14 15 15 17 18 20 24 27 31 33 35 36 37 38 40 41 40 38 36 34 33 34 36 38 39 40 40 40
20 19 20 19 18 17 18 18 18 18 18 18 16 14 15 15 15 18 20 22 23 26 28 33 35 36 38 38 39 40 41 42 41 38 36 36 37 38 40 41 41 41 40 39
19 18 16 14 14 14 15 16 16 15 14 14 15 14 16 18 21 23 25 27 29 32 34 37 38 39 38 39 39 41 41 41 40 38 38 38 40 41 39 38 39 38 38 38
13 13 12 11 13 13 13 13 12 13 15 15 17 19 21 22 24 28 31 34 33 36 38 41 41 41 41 41 41 41 40 38 37 38 39 40 42 40 39 39 39 38 37 36
9 9 9 11 11 12 13 14 14 16 17 19 22 25 27 29 32 35 37 40 41 41 43 43 43 42 41 41 41 39 37 37 38 40 41 41 39 39 41 40 40 38 37 35
9 10 11 12 13 14 17 17 18 20 24 26 28 30 32 35 37 40 42 42 43 42 41 42 41 42 43 42 40 38 38 38 39 38 36 37 39 41 41 39 37 36 34 34
10 12 14 16 20 21 21 20 22 25 29 32 34 36 37 40 41 41 40 41 41 41 42 42 41 40 40 39 38 38 38 37 35 36 37 37 35 32 32 32 32 33 33 32
16 18 20 22 24 25 28 31 35 36 38 38 39 39 39 38 41 43 41 42 41 40 40 37 38 38 39 39 38 37 35 33 33 33 32 30 30 32 33 33 33 32 31 31
25 26 27 29 31 32 34 36 39 40 41 43 45 44 43 41 41 41 40 38 36 35 37 36 35 34 34 34 33 32 30 28 28 26 26 27 30 32 33 32 32 32 31 30
30 31 32 33 33 33 35 37 40 41 41 42 43 41 38 37 35 34 34 35 36 33 32 31 33 34 33 32 30 27 25 24 24 26 28 30 31 34 34 34 34 32 29 28
Wind_Direction
254 261 261 257 245 235 239 244 245 263 266 265 264 269 272 266 262 261 261 258 258 267 272 274 285 292 290 286 287 294 299 304 305 306 307 307 306 305 303 301 300 297 294 291
265 258 264 264 257 253 250 247 251 254 263 259 271 272 269 272 274 269 261 260 264 266 269 276 285 283 281 282 286 293 298 302 305 306 306 305 305 306 306 307 307 305 302 298
270 269 280 278 266 256 258 263 263 257 269 268 265 265 266 269 270 268 262 261 260 261 269 282 280 281 282 286 291 295 300 304 305 305 305 307 307 307 307 306 306 306 306 304
266 280 257 259 250 254 260 264 267 265 266 274 272 266 269 273 275 276 273 268 266 269 271 275 275 278 283 291 294 296 298 299 300 301 302 304 306 309 311 311 310 308 305 303
234 219 273 257 262 270 273 274 269 266 255 261 266 269 263 265 270 268 266 263 259 261 262 264 270 277 286 290 294 295 296 297 298 300 304 308 311 311 311 310 309 306 304 301
215 223 232 233 226 251 277 277 264 258 259 262 263 260 266 261 263 264 261 255 251 256 263 271 280 285 289 291 292 293 294 295 298 301 304 307 308 307 306 306 306 304 304 302
227 239 259 250 258 269 249 255 250 250 256 262 264 262 258 254 250 251 247 247 250 261 274 283 288 290 290 289 289 290 291 293 296 301 305 306 307 307 306 304 304 302 300 299
221 228 259 258 254 251 260 251 253 283 291 286 279 274 269 262 254 250 249 255 266 276 283 287 287 285 285 285 286 287 290 293 297 299 300 301 300 300 303 303 303 302 301 300
227 245 247 246 272 283 275 271 284 291 290 284 281 278 270 261 254 254 259 268 279 285 288 286 283 282 283 284 285 288 290 292 293 296 300 300 300 301 302 301 300 300 300 299
259 264 269 271 277 279 281 279 278 280 285 282 281 275 267 259 256 260 267 275 279 283 282 281 280 281 283 284 285 287 291 294 296 297 298 301 303 304 303 302 299 299 299 299
266 271 276 277 275 280 281 277 275 275 275 273 271 268 262 260 262 267 274 278 281 282 279 278 279 281 284 284 285 290 295 298 300 302 303 302 302 302 300 300 300 300 301 302
275 278 279 283 284 283 279 274 276 276 274 272 269 265 263 263 266 270 274 277 280 281 281 281 283 286 288 290 294 298 302 302 301 301 301 301 300 299 299 300 300 300 301 303
272 269 279 279 277 275 276 275 275 276 276 272 267 263 262 263 267 271 272 276 281 281 282 284 287 291 291 293 298 302 303 302 301 300 299 299 298 298 297 294 295 297 298 298
275 281 277 271 270 271 271 271 272 272 272 269 264 261 263 265 266 268 274 278 277 279 284 286 288 294 294 297 301 303 302 303 303 303 302 301 300 299 299 299 299 297 296 298
276 272 270 268 263 266 268 271 271 271 267 265 264 264 264 265 268 273 270 270 278 283 288 293 295 298 300 305 309 310 311 311 309 308 306 303 302 299 298 297 297 299 299 298
268 268 266 262 263 267 269 268 270 272 268 264 261 260 262 267 269 268 274 277 284 291 295 300 303 306 308 310 311 311 312 313 313 310 308 305 302 299 297 295 295 296 298 301
281 279 275 273 271 265 261 264 263 261 257 257 258 262 263 263 268 263 267 274 283 295 305 307 305 306 307 308 309 309 310 310 308 308 308 304 300 297 295 294 295 296 298 300
271 267 267 266 264 264 264 261 257 257 256 257 257 257 258 253 254 259 264 276 286 296 302 303 305 306 306 306 305 305 304 305 305 305 304 301 299 297 297 296 296 295 294 294
273 271 265 263 260 256 254 250 252 249 247 251 248 249 256 259 258 267 276 284 292 295 297 297 299 301 303 303 301 301 300 301 301 299 296 296 297 299 299 296 293 291 290 290
271 272 268 260 251 244 241 238 237 233 233 243 254 255 261 269 275 279 285 292 294 297 298 299 300 303 303 302 300 298 299 298 296 293 293 294 297 299 298 299 300 298 296 292
273 269 258 244 231 229 228 226 233 242 251 258 263 269 273 278 285 289 290 293 300 300 300 301 301 302 302 300 299 298 297 295 293 293 293 294 296 297 297 300 300 298 300 298
262 248 228 223 223 225 235 243 249 260 268 272 276 278 282 286 289 292 297 301 301 299 298 299 300 300 300 300 299 298 297 295 295 296 295 295 296 298 300 300 298 298 296 297
238 226 225 230 234 238 246 258 269 276 277 279 280 284 287 291 295 297 296 297 295 296 297 298 298 298 298 298 298 298 295 294 295 297 297 298 300 301 301 300 297 296 295 296
238 239 243 250 256 262 267 273 278 284 288 290 291 292 293 294 295 296 296 296 297 297 297 297 297 298 298 297 297 296 294 292 293 295 298 300 301 302 304 303 301 296 292 294
268 267 270 273 276 279 282 286 288 290 291 292 293 293 294 292 293 298 296 297 296 294 295 297 297 298 297 295 293 292 293 292 294 297 299 300 302 303 302 301 299 301 296 293
280 281 282 284 285 287 287 287 288 290 292 293 292 292 292 293 294 294 294 295 296 296 296 298 300 299 297 295 292 291 292 294 296 294 296 301 304 307 307 303 300 298 295 292
292 292 292 292 291 287 287 287 288 289 288 289 290 292 292 293 294 295 294 294 295 296 297 301 304 300 295 293 291 291 293 295 295 297 300 304 306 312 311 307 301 295 292 291